Wind_Speed
4 4 11 12 5 5 5 7 7 4 11 15 14 12 8 7 15 15 14 13 13 13 14 23 28 28 29 33 36 37 38 38 37 38 28 26 24 24 27 27 24 25 24 23
2 9 5 5 5 3 5 7 5 7 9 18 14 12 9 9 10 16 16 13 12 9 8 16 24 28 29 30 32 34 34 35 36 37 30 22 23 24 27 30 30 29 29 29
5 4 9 7 5 9 9 8 7 21 10 15 18 4 5 3 9 13 13 14 11 12 10 10 18 24 27 27 29 31 32 34 33 31 29 28 24 25 29 34 33 32 31 28
6 4 9 6 9 14 16 8 19 24 23 15 3 5 5 9 9 13 13 13 12 13 11 14 17 21 22 22 22 26 29 29 30 31 31 31 30 23 25 28 30 31 32 33
7 7 5 6 5 6 7 17 26 26 15 13 4 5 4 14 11 12 11 13 12 12 13 11 18 19 17 17 18 21 24 27 27 28 29 30 30 29 29 31 33 34 34 34
7 3 2 4 2 3 10 18 17 5 4 1 9 5 7 15 16 14 14 14 14 13 12 16 19 18 16 15 15 16 20 22 22 25 26 28 29 30 32 34 35 35 36 36
3 2 2 2 6 4 13 21 5 3 3 5 14 5 6 18 21 20 19 16 15 14 12 10 15 15 14 13 13 13 16 19 18 19 23 24 26 27 28 29 31 34 34 35
5 3 6 3 3 5 13 8 8 9 8 7 8 7 5 21 22 19 17 16 15 13 13 12 19 18 15 13 12 12 14 17 15 16 18 19 22 26 27 28 28 29 32 34
5 4 3 4 0 4 6 3 6 6 1 6 4 2 13 19 20 19 17 15 15 13 11 12 20 19 17 15 14 14 14 15 14 11 12 15 19 23 24 26 27 30 32 33
4 3 3 3 2 2 3 3 2 2 7 6 4 4 11 19 21 19 18 16 15 14 10 11 19 22 19 18 16 15 14 14 14 13 14 12 17 20 22 25 27 29 30 32
5 4 3 5 6 6 3 2 3 3 4 5 5 6 12 22 25 23 19 17 15 14 13 11 19 23 21 19 17 15 13 12 12 12 15 12 18 21 23 25 27 29 30 31
5 5 4 4 1 3 4 6 5 5 4 2 4 4 18 21 20 20 19 16 14 15 13 16 21 24 21 18 15 13 11 11 12 10 14 14 18 21 25 27 29 31 32 31
6 1 4 3 5 3 5 4 4 5 3 5 6 4 8 17 18 18 17 15 14 14 13 13 18 20 20 17 15 13 11 10 10 10 12 15 19 23 25 28 30 31 31 29
7 5 7 9 5 6 7 9 7 6 4 4 5 8 13 18 20 16 18 17 15 15 16 12 12 19 20 17 16 12 10 9 8 9 13 17 20 23 24 27 29 30 34 29
6 6 5 6 4 7 7 9 9 9 5 7 8 17 21 21 22 21 19 16 16 15 15 13 11 17 19 17 16 12 10 8 8 10 14 17 19 20 23 26 27 35 32 30
2 4 5 5 3 3 6 16 15 8 6 4 15 9 18 18 17 15 17 18 17 17 15 14 15 18 18 20 15 12 9 8 9 11 14 16 17 20 22 23 31 29 29 31
7 6 4 5 2 4 5 15 12 5 8 10 12 7 18 16 20 19 17 20 17 18 16 15 15 19 22 19 15 11 8 8 10 11 12 14 17 19 19 27 26 28 30 31
8 7 3 4 3 3 8 7 14 21 14 6 7 12 23 21 16 14 17 17 19 18 16 15 20 24 24 19 15 11 9 11 10 11 12 13 16 15 23 24 25 27 29 29
6 6 3 6 4 5 6 5 11 12 11 10 12 15 19 17 13 4 8 15 18 17 22 24 28 27 23 18 14 12 14 11 11 10 11 12 13 18 20 23 25 26 27 27
5 5 5 3 7 11 7 6 9 8 12 10 14 19 19 19 15 10 12 17 17 25 27 30 28 27 23 18 15 15 12 11 10 9 10 9 14 16 18 20 23 24 25 23
5 3 8 3 4 7 8 5 10 14 9 14 19 20 23 22 7 10 16 17 29 29 29 30 29 27 22 19 16 16 12 11 8 7 6 8 15 16 16 17 21 23 24 23
11 9 6 2 2 9 7 10 17 7 4 17 19 23 23 13 19 20 19 19 24 25 26 30 29 26 22 19 17 15 13 9 4 6 5 9 13 15 16 17 20 23 24 22
5 8 9 12 10 5 5 4 6 6 6 8 17 19 20 23 22 22 20 19 23 26 25 31 31 26 21 18 15 16 12 6 4 5 5 7 10 13 15 18 20 22 24 21
5 5 5 5 7 7 6 3 5 5 6 7 16 21 24 22 23 21 19 16 21 24 27 30 32 27 23 19 16 15 11 5 7 5 3 5 10 13 15 17 18 19 20 24
6 10 9 4 5 3 4 4 6 6 11 14 18 24 22 26 21 22 17 16 23 27 27 32 29 28 25 22 20 14 8 6 8 5 2 3 9 10 15 16 17 17 15 17
6 12 11 10 7 8 9 10 9 15 15 19 18 15 19 24 22 17 16 25 29 28 28 27 31 29 26 23 19 12 7 7 7 5 5 3 5 7 12 17 19 15 16 15
Wind_Direction
203 158 200 202 140 110 112 113 123 90 141 105 124 125 133 121 106 110 110 106 99 90 82 70 64 57 55 51 49 48 48 48 48 47 40 34 41 41 35 35 31 25 21 15
154 224 188 173 200 179 136 139 144 119 145 114 121 115 124 129 126 127 125 120 118 109 87 76 66 59 55 52 49 47 46 45 45 47 50 51 48 41 37 37 36 29 26 25
192 239 183 182 198 204 206 179 170 148 119 108 107 60 126 98 120 124 127 133 129 122 108 85 68 62 57 56 49 45 45 45 42 42 41 42 42 33 24 25 25 29 29 26
231 253 173 173 204 189 215 192 157 143 138 154 150 161 220 160 139 127 133 136 136 129 114 105 88 73 63 60 51 49 46 44 41 42 44 44 41 32 19 21 20 20 20 19
233 170 179 195 198 184 195 165 157 152 143 134 203 114 201 164 164 151 149 137 135 131 127 122 112 101 89 74 64 54 49 45 43 43 44 43 43 37 31 27 23 19 16 16
179 160 141 182 217 212 133 129 130 68 124 232 190 130 206 185 169 155 151 143 140 134 130 128 121 110 99 86 84 69 56 52 46 43 42 40 36 30 27 23 20 17 14 13
85 82 286 160 99 359 137 139 135 163 221 212 191 210 210 190 164 163 155 150 144 140 136 140 135 122 110 96 88 80 61 54 47 44 41 38 34 30 26 22 17 13 8 5
157 193 185 194 205 172 167 149 166 169 183 181 158 227 223 173 160 153 149 150 146 147 149 152 150 145 139 118 103 91 70 54 44 40 39 37 31 26 23 19 13 11 6 4
151 228 145 171 130 184 189 167 184 108 69 126 148 83 23 137 144 149 153 152 155 153 152 150 155 145 139 127 112 101 82 60 46 38 36 37 32 26 20 14 11 6 4 0
197 117 230 126 110 338 131 163 98 11 157 166 196 208 162 163 158 160 165 163 160 159 148 146 148 148 136 125 116 99 82 64 45 45 37 37 31 24 19 12 9 5 3 360
154 121 208 126 208 171 127 192 197 132 151 152 149 244 169 172 167 167 167 167 162 155 155 153 148 143 136 125 114 98 81 63 45 43 30 34 27 20 15 13 8 5 1 0
187 122 160 191 247 203 193 194 158 152 210 141 152 255 176 170 169 162 165 164 159 153 156 150 148 143 134 122 114 105 86 62 43 36 27 38 22 14 9 8 6 3 2 359
185 128 94 48 332 270 203 201 162 117 85 197 139 246 177 159 158 163 155 155 153 153 147 145 144 140 132 129 125 110 84 60 38 35 49 30 19 11 10 5 2 3 1 357
116 141 163 190 211 154 188 196 185 145 137 168 203 144 155 160 161 157 158 156 157 155 149 144 137 142 140 133 126 106 84 58 58 61 41 24 15 12 9 3 2 0 354 355
119 164 165 216 230 184 177 187 177 192 167 176 180 167 177 171 170 166 159 158 156 149 146 147 147 145 137 127 120 103 87 74 69 58 34 21 15 13 7 6 1 352 359 4
24 193 147 209 172 91 198 207 198 173 172 112 167 180 179 165 150 153 159 161 159 155 151 150 145 142 136 132 120 109 91 83 91 55 34 21 16 11 11 7 358 3 5 5
145 139 120 227 121 82 305 212 196 171 187 150 176 194 160 165 164 166 163 167 159 153 151 147 145 139 136 132 125 109 100 108 80 53 42 27 19 16 14 6 11 9 3 359
144 127 124 167 80 212 251 197 190 196 188 158 131 160 170 173 167 165 170 160 151 150 147 143 142 138 137 133 125 117 117 113 78 63 42 31 21 23 11 16 15 8 2 356
138 131 141 150 206 297 278 200 179 171 208 181 158 166 166 154 142 152 162 154 153 149 148 147 144 142 139 135 126 121 121 101 83 59 43 35 24 15 18 19 14 8 1 355
119 113 138 140 171 219 211 215 141 97 221 185 158 168 160 150 173 185 156 140 138 141 144 143 142 142 139 137 131 129 120 106 84 64 50 42 23 20 22 18 15 11 9 360
176 87 188 140 213 275 245 196 137 179 227 176 170 169 165 177 175 142 140 138 143 145 146 145 146 145 143 141 137 129 122 108 94 64 68 42 23 25 19 19 19 14 9 357
172 167 189 109 107 263 198 151 175 200 177 181 167 165 166 135 134 142 144 143 145 147 146 149 144 144 145 144 139 131 124 121 78 89 89 42 27 25 22 20 19 17 10 358
202 187 179 187 207 215 246 205 199 170 152 165 157 161 146 144 147 150 149 149 152 150 146 148 144 143 145 146 146 137 139 135 110 98 102 33 20 19 24 21 19 16 11 2
235 153 174 114 218 226 228 240 169 168 154 148 156 149 147 149 151 151 150 151 152 147 145 145 144 144 145 146 148 150 150 139 129 103 98 15 9 13 20 18 20 15 6 2
182 155 169 224 260 131 246 192 147 101 117 129 148 150 150 147 155 151 152 151 148 146 146 149 149 148 150 150 147 152 151 145 130 115 116 30 5 11 10 11 12 12 9 360
185 180 185 220 178 174 198 184 154 137 140 143 138 141 152 150 151 150 152 150 148 148 149 148 151 151 152 151 151 154 153 151 138 129 136 26 19 14 1 359 359 13 12 7
Height
775 787 790 781 784 781 785 794 803 806 806 814 826 834 836 835 835 840 843 847 849 851 855 853 853 852 850 847 844 842 839 834 832 825 828 830 832 833 834 832 831 830 827 823
782 787 775 772 777 783 787 801 805 810 805 812 829 837 834 834 836 837 842 848 851 854 855 856 855 854 852 850 849 847 844 842 838 835 837 839 838 840 840 839 836 832 828 825
786 773 766 773 778 786 790 798 806 808 811 817 825 846 842 837 836 837 842 846 851 853 855 857 857 857 856 854 853 850 848 846 845 843 842 840 839 840 838 837 837 836 835 833
779 764 767 772 774 774 790 779 788 801 812 832 816 864 847 840 840 839 845 848 851 853 856 859 859 859 859 859 858 856 854 852 851 849 848 846 846 845 846 843 841 838 836 832
776 770 771 773 766 766 776 769 782 791 806 817 825 845 841 833 841 843 846 846 849 852 854 859 860 861 862 862 861 860 859 857 856 854 852 851 851 850 848 845 841 838 836 834
766 759 763 764 762 761 761 778 795 806 817 836 821 831 841 829 827 840 840 844 847 851 854 858 860 861 863 863 862 862 862 861 860 858 857 855 853 852 848 845 842 839 838 835
767 769 764 760 767 764 764 780 825 833 839 837 806 820 823 812 819 825 835 842 845 849 852 856 859 861 862 863 863 864 864 862 862 860 859 858 857 855 852 849 846 842 839 835
782 790 770 761 766 770 765 773 799 821 828 821 799 819 810 796 811 822 830 836 843 848 850 853 856 860 862 863 864 864 864 863 863 862 860 860 858 856 854 851 848 846 842 838
779 776 762 761 758 762 773 786 776 796 796 812 820 815 810 805 817 824 831 835 841 844 847 851 855 858 860 862 863 864 864 864 864 863 863 861 859 856 854 853 850 846 842 838
760 782 765 765 761 762 767 768 789 797 811 818 820 818 816 817 817 822 829 833 837 841 846 850 853 857 859 860 862 862 863 864 865 864 863 862 860 857 856 853 849 846 841 837
757 772 776 768 772 772 776 778 778 781 796 815 828 817 792 800 804 813 822 827 832 839 843 847 852 855 857 859 859 861 863 864 865 864 864 862 859 857 855 852 848 845 840 836
752 772 785 775 761 760 764 771 774 795 793 794 802 806 776 791 800 808 817 824 830 834 840 845 850 853 855 856 858 861 863 863 863 865 863 861 859 857 854 851 847 843 839 835
753 776 793 783 778 768 770 767 766 775 787 789 808 808 781 789 799 805 814 821 827 835 840 845 849 850 852 856 858 859 861 862 864 864 862 861 859 855 852 849 846 842 838 834
745 767 774 777 771 773 773 764 766 772 804 796 793 796 793 793 797 805 810 816 826 832 836 841 846 849 853 854 855 857 860 863 864 863 862 861 858 855 851 848 844 841 837 832
750 764 763 761 755 758 760 760 765 768 774 782 781 779 780 782 788 795 803 814 822 828 833 839 844 847 850 851 853 856 860 862 862 862 861 860 858 855 851 847 844 840 835 831
751 763 759 761 754 755 759 753 755 762 766 768 771 778 768 776 786 795 801 809 816 823 830 837 841 844 847 850 853 856 859 861 862 861 861 860 857 854 851 847 843 839 835 831
754 761 777 771 760 762 776 756 753 756 755 760 775 771 769 782 783 789 798 803 810 819 826 833 837 841 845 848 852 855 858 860 860 861 860 859 857 854 851 847 843 839 835 830
755 760 776 782 770 791 733 733 733 738 744 749 755 759 761 766 775 784 789 797 807 815 824 829 833 838 843 847 851 854 856 858 859 859 859 858 856 853 850 846 843 839 835 831
735 755 780 786 785 756 738 730 734 739 748 742 749 752 758 768 780 788 788 792 800 810 818 824 829 835 841 846 850 853 855 857 857 858 858 857 855 852 849 846 842 839 835 831
738 743 760 794 778 769 737 721 722 727 746 735 737 749 757 767 782 784 787 792 803 809 815 821 827 833 839 844 848 851 854 855 855 856 856 856 854 851 849 846 842 839 835 832
747 761 756 781 780 753 722 717 717 742 732 721 726 738 748 751 753 775 785 793 798 806 813 819 825 831 836 842 845 849 852 854 854 854 854 854 852 850 849 846 843 839 835 832
728 745 751 767 779 755 711 716 718 708 709 709 716 727 738 752 762 772 782 790 798 804 811 817 823 829 835 839 842 847 850 852 853 854 853 852 851 849 847 845 842 838 835 832
726 714 722 722 712 706 704 697 697 701 705 708 712 721 733 749 758 768 779 787 794 801 808 815 821 828 834 837 840 844 848 850 851 851 851 850 849 848 846 843 840 837 834 832
701 704 713 712 705 704 697 695 694 697 699 703 708 719 727 742 755 766 775 784 791 798 805 812 820 826 832 836 839 842 846 847 848 849 850 849 848 846 845 842 839 837 834 831
695 696 703 704 694 696 696 694 696 700 700 706 713 718 728 739 753 759 771 779 788 795 804 810 817 823 829 834 837 841 843 845 846 847 848 849 847 845 844 842 839 837 835 833
676 672 684 680 684 685 688 690 692 696 702 707 713 727 732 735 747 758 768 776 784 793 802 809 814 821 827 831 835 839 841 842 844 845 847 847 846 845 843 839 837 837 834 831